Showing default

SAUDISAT 5B, 43833

Orbit data source: Space-Track

SAUDISAT 5B, 43833 is a payload satellite owned by KACST (SA) in SSO that was launched on Fri, 07 Dec 2018 UTC via a CHANG ZHENG 2D launch vehicle from the Jiuquan Satellite Launch Center, China (JSC). Payload-class satellites include a variety of spacecraft equipped with specific instruments for various scientific and technological missions. These include communications satellites like Starlink; space stations such as the ISS; scientific satellites like the Hubble; Earth observation satellites from companies like Planet Labs, Umbra, and HawkEye 360; GPS; miniature CubeSats for education and research; and military/defense satellites.

Loading next visibility...
Identifier
43833, 2018-102C
Orbit
SSO
Country
Flag of UnknownUnknown / SAUD
Related business
Manufacturer
KACST
Mission
Operational Civil Technology
Bus & Motor
SAUDISAT, Unknown motor
Mass
425 kg wet, 425 kg dry
Launch date (UTC)
2018-12-07 (7 years ago)
Launch vehicle
CHANG ZHENG 2D
Launch site
Jiuquan Satellite Launch Center, China (JSC)
Object type
Payload
Rocket body
Debris
Shape & HBR
Box, 1.0 m
Radar Cross Section
2.500 m², Large (>1 m²)

Expand to show TLE details & history
Last TLE update: 5 hours ago

TLE from 5 hours ago
0 SAUDISAT 5B
1 43833U 18102C   26036.84853354  .00011502  00000-0  43840-3 0  9991
2 43833  97.3349 103.8160 0009382 237.1016 122.9321 15.26818996395742
Epoch: 2026-02-05T20:21Z
TLE epoch observation values (Epoch: 2026-02-05T20:21:53.297Z)
Latitude
-0.00004°
Longitude
22.34906°
Altitude
491.936 km
Speed
7.617 km/s
True Right ascension
06h 55m 15s
True Declination
0° 00' 00"
Sunlit
Object was in full shadow at epoch
Visualization orbit readout
Latitude
Unknown
Longitude
Unknown
Altitude
Unknown
Speed
Unknown
Apparent Right ascension
Unknown
Apparent Declination
Unknown
Sunlit
N/A
Visualization observer readout
Local Sidereal Time
03:12:57
Azimuth
Unknown
Elevation
Unknown
Doppler factor
Unknown
Orbital elements
Apogee altitude
488.719 km
Perigee altitude
475.846 km
Semi-major axis
6,860.419 km
Eccentricity
0.00094
Inclination
97.3349°
RAAN
103.816°
Arg. of periapsis
237.1016°
True anomaly
123.02228°
Mean anomaly
122.9321°
Eccentric anomaly
122.97719°
Mean motion
3.81959 °/min
Orbital period
94.25 mins
BSTAR
0.0004384
Loading maneuver chart data...
Computing Atmospheric mass density...
Loading historical data...
Loading historical data...
Loading historical data...
Loading historical data...
Loading historical data...
Loading historical data...
Loading historical data...

Documentation

Showing up to 5 results
|